Regional Weather Roundup
Issued by NWS

Home | Current Version | Previous Version | Graphics & Text | Print | Product List | Glossary On
Versions: 1 2 3 4 5 6 7 8 9 10 11 12 13 14 15 16 17 18 19 20 21 22 23 24 25 26 27 28 29 30 31 32 33 34 35 36 37 38 39 40 41 42 43 44 45 46 47 48 49 50
000
ASUS43 KLOT 231402
RWRIL

ILLINOIS REGIONAL WEATHER ROUNDUP
NATIONAL WEATHER SERVICE CHICAGO/ROMEOVILLE IL
900 AM CDT SAT MAY 23 2015

NOTE: "FAIR" INDICATES FEW OR NO CLOUDS BELOW 12,000 FEET WITH NO
SIGNIFICANT WEATHER AND/OR OBSTRUCTIONS TO VISIBILITY.

* THESE STATIONS ARE NOT UNDER NWS QUALITY CONTROL. THEY ALSO MAY NOT
  REPORT WEATHER SUCH AS PRECIPITATION OR FOG.

ILZ001-002-007-009-015-016-024-231500-
NORTHWEST ILLINOIS

CITY           SKY/WX    TMP DP  RH WIND       PRES   REMARKS
MOLINE         SUNNY     68  53  58 SW5       30.30R
STERLING*      MOSUNNY   66  41  39 S7        30.32S
$$

ILZ003-004-008-010-011-017-018-231500-
NORTH CENTRAL ILLINOIS

CITY           SKY/WX    TMP DP  RH WIND       PRES   REMARKS
ROCKFORD       PTSUNNY   66  40  38 SE9       30.35R
$$

ILZ005-006-012>014-019>023-231500-
NORTHEAST ILLINOIS

CITY           SKY/WX    TMP DP  RH WIND       PRES   REMARKS
CHICAGO-OHARE  MOSUNNY   64  36  35 S12       30.34S
CHICAGO-MIDWAY MOSUNNY   67  36  31 S8        30.35R
AURORA         MOSUNNY   65  38  36 SE9       30.35R
WAUKEGAN       SUNNY     65  36  34 S9        30.34S
DUPAGE AIRPORT SUNNY     63  40  42 S7        30.34R
WHEELING       SUNNY     65  35  33 S13       30.36S
NORTHERLY ISL    N/A     57  45  64 SE2         N/A
$$

LMZ740>746-231500-
SOUTHERN LAKE MICHIGAN

STATION/POSITION SKY/WX   TEMP    WIND        PRES    VSBY  WAVE
                          AIR SEA DIR/SP/G                  HT/PER
                          (F)     (DEG/KT/KT) (MB)    (MI)  (FT/S)
SOUTHERN BUOY              42 38  200/  4/  6 1028.9R         0
HARRISON CRIB              55     160/  9/ 11   N/A
BURNHAM HARBOR             57     150/  4/  5   N/A
CALUMET HARBOR             60     140/  6/  9   N/A
BURNS HARBOR               61     170/  9/ 14 1028.1F
MICHIGAN CITY              60     130/ 11/ 13   N/A
MICHIGAN CITY 6N           56 51  170/ 10/ 12   N/A           1
ST. JOSEPH                 56 53  190/  8/  8   N/A           1
$$

ILZ025>027-034>036-040-047-049-050-058-095>099-231500-
WEST-CENTRAL ILLINOIS

CITY           SKY/WX    TMP DP  RH WIND       PRES   REMARKS
QUINCY         PTSUNNY   68  52  56 S6        30.31S
$$

ILZ028>032-037-038-041>044-048-051>054-059>061-231500-
CENTRAL ILLINOIS

CITY           SKY/WX    TMP DP  RH WIND       PRES   REMARKS
DECATUR        MOSUNNY   70  54  56 S3        30.34R
PEORIA         SUNNY     68  52  56 S5        30.33R
SPRINGFIELD    MOSUNNY   71  56  58 S8        30.34R
TAYLORVILLE    NOT AVBL
$$

ILZ033-039-045-046-055>057-062-063-231500-
EAST-CENTRAL ILLINOIS

CITY           SKY/WX    TMP DP  RH WIND       PRES   REMARKS
CHAMPAIGN      MOSUNNY   72  51  47 SW7       30.35R
MATTOON        MOSUNNY   70  54  56 S6        30.35R
$$

ILZ079-100>102-231500-
SOUTHWEST ILLINOIS

CITY           SKY/WX    TMP DP  RH WIND       PRES   REMARKS
ALTON          PTSUNNY   68  57  68 SE6       30.34R
BELLEVILLE     PTSUNNY   68  57  67 SE5       30.32R
CAHOKIA*       CLOUDY    69  54  58 SE6       30.33R
$$

ILZ064>066-069>071-074>076-080>082-084>086-088>090-092>094-231500-
SOUTH-CENTRAL ILLINOIS

CITY           SKY/WX    TMP DP  RH WIND       PRES   REMARKS
CARBONDALE     MOSUNNY   69  53  56 SE8       30.33R
MARION         MOSUNNY   70  55  60 SE6       30.34S
MT. VERNON     PTSUNNY   68  55  64 SE5       30.35S
$$

ILZ067-068-072-073-078-083-087-091-231500-
SOUTHEAST ILLINOIS

CITY           SKY/WX    TMP DP  RH WIND       PRES   REMARKS
LAWRENCEVILLE  CLOUDY    69  57  65 E3        30.37R
$$

ABBREVIATIONS USED IN REMARKS
   TC - TEMPERATURE IN CELSIUS
  WCI - WIND CHILL INDEX
   HX - HEAT INDEX
  VSB - VISIBILITY
$$




USA.gov is the U.S. government's official web portal to all federal, state and local government web resources and services.